Other Public Products
Issued by NWS Charleston, SC

Current Version | Previous Version | Text Only | Print | Product List | Glossary Off
Versions: 1 2 3 4 5 6 7 8 9 10 11 12 13 14 15 16 17 18 19 20 21 22 23 24 25 26 27 28 29 30 31 32 33 34 35 36 37 38 39 40 41 42 43 44 45 46 47 48 49 50

000
FPUS82 KCHS 222127
OPUCHS

TEST...KCHS/KSAV Gateway Observations...TEST
National Weather Service Charleston SC
400 PM EST THU FEB 22 2018

NOTE: "fair" indicates few or no clouds below 12,000 feet with no
significant weather and/or obstructions to visibility.

SCZ050-WAZ558-NCZ071-TXZ119-213-PAZ071-DCZ001-FLZ074-172-MI076-
NYZ176-178-MAZ016-IL014-TNZ027-NJZ106-GAZ044-MD014-222200-

...Gateway Observations for Charleston International...

CITY           SKY/WX    TMP DP  RH WIND       PRES   REMARKS
Chas Airport   FAIR      81  57  43 S8        30.40F
Seattle        FAIR      37  22  54 N15       30.32S WCI  28
Charlotte      PTSUNNY   79  62  56 SW12      30.37F
Dallas DFW     CLOUDY    39  36  89 NW10      30.20F FOG     WCI  32
Dallas Love    LGT RAIN  38  37  97 NW12      30.22F FOG     WCI  30
Philladelphia  LGT RAIN  41  39  93 NE12      30.59R FOG
Wash National  DRIZZLE   51  49  92 NE13      30.49R FOG
Baltimore      DRIZZLE   47  47 100 NE9       30.48R FOG
Miami          PTSUNNY   80  67  64 E13G22    30.29F
Detroit        CLOUDY    40  26  57 NE13      30.54F WCI  32
Newark         LGT RAIN  39  37  92 NE12      30.61R FOG     WCI  32
Laguardia      LGT RAIN  39  33  79 NE13      30.61R WCI  31
J F K          LGT RAIN  39  36  89 NE15      30.59R WCI  31
Boston Logan   LGT SNOW  32  30  92 NE6       30.67R VSB 1   WCI  26
Ft. Lauderdale FAIR      80  69  69 E15       30.29F
Chicago O`Hare CLOUDY    38  28  67 E16       30.43F WCI  29
Chicago Midway CLOUDY    39  30  70 NE17      30.44F WCI  30
Houston Bush   LGT RAIN  68  65  90 CALM      30.14F FOG
Houston Hobby  LGT RAIN  75  72  90 S12G21    30.13F
Nashville      CLOUDY    59  57  93 SE3       30.31F
Atlanta        FAIR      79  64  60 S7        30.37F

$$

GAZ044-118-TXZ119-213-NCZ071-DCZ001-MDZ014-506-PAZ021-071-NJZ106-
NYZ176-178-MAZ106-OHZ011-021-055-MIZ076-KYZ091-ILZ014-INZ047-
MNZ060-ONZ431-222200-

...Gateway Observations for Savannah International...

CITY           SKY/WX    TMP DP  RH WIND       PRES   REMARKS
Savannah Arpt  FAIR      80  59  48 E8        30.39F
Atlanta        FAIR      79  64  60 S7        30.37F
Charlotte      PTSUNNY   79  62  56 SW12      30.37F
Dallas DFW     CLOUDY    39  36  89 NW10      30.20F FOG     WCI  32
Houston Bush   LGT RAIN  68  65  90 CALM      30.14F FOG
Wash National  DRIZZLE   51  49  92 NE13      30.49R FOG
Wash Dulles    LGT RAIN  45  44  97 N16       30.49R VSB 1
Baltimore      DRIZZLE   47  47 100 NE9       30.48R FOG
Philadelphia   LGT RAIN  41  39  93 NE12      30.59R FOG
Newark         LGT RAIN  39  37  92 NE12      30.61R FOG     WCI  32
Laguardia      LGT RAIN  39  33  79 NE13      30.61R WCI  31
J F K          LGT RAIN  39  36  89 NE15      30.59R WCI  31
Boston         LGT SNOW  32  30  92 NE6       30.67R VSB 1   WCI  26
Pittsburg      CLOUDY    41  37  86 E12       30.43F
Akron          PTSUNNY   45  38  76 E15       30.44S
Cleveland      CLOUDY    35  32  88 NE18      30.51S WCI  24
Cincinnati     CLOUDY    46  42  86 E9        30.38S
Columbus       CLOUDY    45  41  87 E14       30.42S
Detroit        CLOUDY    40  26  57 NE13      30.54F WCI  32
Chicago O`Hare CLOUDY    38  28  67 E16       30.43F WCI  29
Minneapolis    CLOUDY    29  15  56 E9        30.43F WCI  20
Indianapolis   CLOUDY    44  39  82 E16       30.37F
Toronto Canada PTSUNNY   34  21  60 E5        30.62S WCI  30

$$




USA.gov is the U.S. government's official web portal to all federal, state and local government web resources and services.